• In Uzbekistan
  • List of Countries
  • For 7 days
  • Water Temperature
  • Satellite Maps
  • Weather Map
  • Weather Widgets
  • user-avatar
    Login

    Hourly Weather Islamabad

    Today, 17 October, Wednesday

    Time Temperature Precipitation Wind Pressure Humidity
    00:00 +19°C° 0.2 mm 4 mps 716 mmHg 50%
    01:00 +19°C° 0.2 mm 4 mps 716 mmHg 52%
    02:00 +19°C° 0.2 mm 4 mps 716 mmHg 53%
    03:00 +18°C° 0.1 mm 4 mps 716 mmHg 53%
    04:00 +18°C° 0.1 mm 4 mps 716 mmHg 53%
    05:00 +18°C° 0 mm 3 mps 715 mmHg 47%
    06:00 +19°C° 0 mm 3 mps 716 mmHg 45%
    07:00 +20°C° 0 mm 3 mps 716 mmHg 43%
    08:00 +21°C° 0 mm 3 mps 717 mmHg 42%
    09:00 +24°C° 0 mm 3 mps 717 mmHg 36%
    10:00 +26°C° 0 mm 2 mps 717 mmHg 31%
    11:00 +28°C° 0 mm 2 mps 717 mmHg 26%
    12:00 +29°C° 0 mm 2 mps 717 mmHg 25%
    13:00 +29°C° 0 mm 2 mps 716 mmHg 23%
    14:00 +30°C° 0 mm 2 mps 716 mmHg 22%
    15:00 +29°C° 0 mm 2 mps 715 mmHg 24%
    16:00 +28°C° 0 mm 1 mps 715 mmHg 26%
    17:00 +26°C° 0 mm 2 mps 715 mmHg 26%
    18:00 +25°C° 0 mm 2 mps 715 mmHg 27%
    19:00 +24°C° 0 mm 2 mps 715 mmHg 27%
    20:00 +22°C° 0 mm 3 mps 715 mmHg 28%
    21:00 +21°C° 0 mm 3 mps 715 mmHg 27%
    22:00 +21°C° 0 mm 3 mps 715 mmHg 27%
    23:00 +20°C° 0 mm 3 mps 715 mmHg 27%

    Tomorrow, 18 October, Thursday

    Time Temperature Precipitation Wind Pressure Humidity
    00:00 +20°C° 0 mm 3 mps 715 mmHg 27%
    01:00 +19°C° 0 mm 3 mps 715 mmHg 27%
    02:00 +19°C° 0 mm 3 mps 715 mmHg 27%
    03:00 +18°C° 0 mm 3 mps 715 mmHg 27%
    04:00 +18°C° 0 mm 3 mps 715 mmHg 28%
    05:00 +18°C° 0 mm 2 mps 715 mmHg 28%
    06:00 +19°C° 0 mm 3 mps 715 mmHg 28%
    07:00 +20°C° 0 mm 3 mps 716 mmHg 28%
    08:00 +21°C° 0 mm 3 mps 716 mmHg 28%
    09:00 +24°C° 0 mm 2 mps 716 mmHg 24%
    10:00 +27°C° 0 mm 2 mps 717 mmHg 21%
    11:00 +29°C° 0 mm 1 mps 717 mmHg 17%
    12:00 +29°C° 0 mm 1 mps 717 mmHg 17%
    13:00 +30°C° 0 mm 1 mps 716 mmHg 17%
    14:00 +30°C° 0 mm 2 mps 716 mmHg 17%
    15:00 +29°C° 0 mm 1 mps 715 mmHg 20%
    16:00 +28°C° 0 mm 1 mps 715 mmHg 23%
    17:00 +27°C° 0 mm 1 mps 715 mmHg 26%
    18:00 +26°C° 0 mm 2 mps 715 mmHg 26%
    19:00 +24°C° 0 mm 2 mps 715 mmHg 27%
    20:00 +22°C° 0 mm 3 mps 716 mmHg 27%
    21:00 +22°C° 0 mm 3 mps 716 mmHg 27%
    22:00 +21°C° 0 mm 3 mps 716 mmHg 28%
    23:00 +20°C° 0 mm 3 mps 716 mmHg 28%

    Day after tomorrow, 19 October, Friday

    Time Temperature Precipitation Wind Pressure Humidity
    00:00 +20°C° 0 mm 3 mps 716 mmHg 28%
    01:00 +19°C° 0 mm 3 mps 716 mmHg 28%
    02:00 +19°C° 0 mm 3 mps 716 mmHg 28%
    03:00 +19°C° 0 mm 3 mps 716 mmHg 29%
    04:00 +18°C° 0 mm 3 mps 716 mmHg 29%
    05:00 +18°C° 0 mm 3 mps 716 mmHg 29%
    06:00 +19°C° 0 mm 3 mps 716 mmHg 29%
    07:00 +20°C° 0 mm 3 mps 717 mmHg 28%
    08:00 +21°C° 0 mm 3 mps 717 mmHg 28%
    09:00 +24°C° 0 mm 2 mps 718 mmHg 25%
    10:00 +26°C° 0 mm 2 mps 718 mmHg 21%
    11:00 +28°C° 0 mm 1 mps 718 mmHg 18%
    12:00 +29°C° 0 mm 1 mps 718 mmHg 18%
    13:00 +29°C° 0 mm 2 mps 718 mmHg 18%
    14:00 +30°C° 0 mm 2 mps 717 mmHg 17%
    15:00 +29°C° 0 mm 2 mps 717 mmHg 20%
    16:00 +28°C° 0 mm 1 mps 717 mmHg 23%
    17:00 +27°C° 0 mm 1 mps 716 mmHg 25%
    18:00 +25°C° 0 mm 2 mps 717 mmHg 26%
    19:00 +24°C° 0 mm 2 mps 717 mmHg 27%
    20:00 +23°C° 0 mm 2 mps 717 mmHg 28%
    21:00 +21°C° 0 mm 2 mps 717 mmHg 29%
    22:00 +21°C° 0 mm 3 mps 718 mmHg 30%
    23:00 +20°C° 0 mm 3 mps 718 mmHg 30%

    20 October, Saturday

    Time Temperature Precipitation Wind Pressure Humidity
    00:00 +20°C° 0 mm 3 mps 718 mmHg 30%
    01:00 +19°C° 0 mm 3 mps 717 mmHg 31%
    02:00 +19°C° 0 mm 3 mps 717 mmHg 31%
    03:00 +18°C° 0 mm 3 mps 717 mmHg 31%
    04:00 +18°C° 0 mm 3 mps 717 mmHg 31%
    05:00 +18°C° 0 mm 3 mps 717 mmHg 31%
    06:00 +19°C° 0 mm 3 mps 718 mmHg 30%
    07:00 +20°C° 0 mm 3 mps 718 mmHg 29%
    08:00 +21°C° 0 mm 3 mps 719 mmHg 29%
    09:00 +24°C° 0 mm 2 mps 719 mmHg 25%
    10:00 +26°C° 0 mm 2 mps 720 mmHg 22%
    11:00 +28°C° 0 mm 2 mps 720 mmHg 18%
    12:00 +28°C° 0 mm 2 mps 720 mmHg 18%
    13:00 +29°C° 0 mm 2 mps 719 mmHg 17%
    14:00 +30°C° 0 mm 2 mps 718 mmHg 17%
    15:00 +28°C° 0 mm 2 mps 718 mmHg 19%
    16:00 +27°C° 0 mm 2 mps 718 mmHg 22%
    17:00 +26°C° 0 mm 2 mps 718 mmHg 24%
    18:00 +25°C° 0 mm 2 mps 718 mmHg 25%
    19:00 +24°C° 0 mm 2 mps 718 mmHg 26%
    20:00 +21°C° 0 mm 2 mps 718 mmHg 27%
    21:00 +21°C° 0 mm 2 mps 718 mmHg 27%
    22:00 +20°C° 0 mm 2 mps 718 mmHg 28%
    23:00 +20°C° 0 mm 3 mps 718 mmHg 28%

    21 October, Sunday

    Time Temperature Precipitation Wind Pressure Humidity
    00:00 +19°C° 0 mm 3 mps 718 mmHg 28%
    01:00 +19°C° 0 mm 3 mps 718 mmHg 28%
    02:00 +18°C° 0 mm 3 mps 718 mmHg 28%
    03:00 +18°C° 0 mm 3 mps 718 mmHg 27%
    04:00 +17°C° 0 mm 3 mps 718 mmHg 27%
    05:00 +17°C° 0 mm 3 mps 718 mmHg 26%
    06:00 +18°C° 0 mm 2 mps 718 mmHg 26%
    07:00 +19°C° 0 mm 2 mps 719 mmHg 25%
    08:00 +20°C° 0 mm 2 mps 719 mmHg 24%
    09:00 +23°C° 0 mm 2 mps 720 mmHg 22%
    10:00 +26°C° 0 mm 2 mps 720 mmHg 19%
    11:00 +28°C° 0 mm 1 mps 720 mmHg 17%
    12:00 +28°C° 0 mm 2 mps 720 mmHg 16%
    13:00 +29°C° 0 mm 2 mps 719 mmHg 16%
    14:00 +29°C° 0 mm 2 mps 719 mmHg 16%
    15:00 +28°C° 0 mm 2 mps 718 mmHg 18%
    16:00 +27°C° 0 mm 2 mps 718 mmHg 21%
    17:00 +26°C° 0 mm 1 mps 718 mmHg 24%
    18:00 +25°C° 0 mm 2 mps 718 mmHg 24%
    19:00 +23°C° 0 mm 2 mps 718 mmHg 25%
    20:00 +21°C° 0 mm 2 mps 718 mmHg 26%
    21:00 +20°C° 0 mm 2 mps 718 mmHg 26%
    22:00 +20°C° 0 mm 2 mps 718 mmHg 27%
    23:00 +19°C° 0 mm 2 mps 718 mmHg 27%

    22 October, Monday

    Time Temperature Precipitation Wind Pressure Humidity
    00:00 +19°C° 0 mm 2 mps 718 mmHg 27%
    01:00 +18°C° 0 mm 2 mps 718 mmHg 27%
    02:00 +18°C° 0 mm 3 mps 717 mmHg 27%
    03:00 +18°C° 0 mm 3 mps 717 mmHg 27%
    04:00 +17°C° 0 mm 3 mps 717 mmHg 27%
    05:00 +17°C° 0 mm 3 mps 717 mmHg 26%
    06:00 +18°C° 0 mm 2 mps 717 mmHg 26%
    07:00 +19°C° 0 mm 2 mps 717 mmHg 26%
    08:00 +20°C° 0 mm 2 mps 718 mmHg 25%
    09:00 +23°C° 0 mm 2 mps 718 mmHg 22%
    10:00 +25°C° 0 mm 2 mps 718 mmHg 19%
    11:00 +27°C° 0 mm 2 mps 718 mmHg 16%
    12:00 +28°C° 0 mm 2 mps 718 mmHg 16%
    13:00 +28°C° 0 mm 2 mps 717 mmHg 16%
    14:00 +29°C° 0 mm 2 mps 717 mmHg 15%
    15:00 +28°C° 0 mm 2 mps 716 mmHg 18%
    16:00 +27°C° 0 mm 2 mps 716 mmHg 20%
    17:00 +25°C° 0 mm 1 mps 716 mmHg 23%
    18:00 +24°C° 0 mm 2 mps 716 mmHg 24%
    19:00 +23°C° 0 mm 2 mps 716 mmHg 24%
    20:00 +20°C° 0 mm 2 mps 717 mmHg 25%
    21:00 +20°C° 0 mm 2 mps 717 mmHg 25%
    22:00 +19°C° 0 mm 2 mps 717 mmHg 26%
    23:00 +19°C° 0 mm 2 mps 717 mmHg 26%
    Show more